contact:dominique.lefevre@mio.osupytheas.fr, maurice.libes@osupytheas.fr, didier.mallarino@osupytheas.fr
Project:EMSO http://www.emso-fr.org/EMSO-France
Depth: 2436.0 m
Title:EMSO Ligure Ouest : Data MII capteur AQUADOPP
Date,Latitude,Longitude,X_East,Y_North,Z_Up,Amplitude_X,Amplitude_Y,Amplitude_Z,Batterie,SoundSpeed,Heading,Pitch,Roll,Pressure,TIS,Speed,Direction
, degrees North, degrees East, m.s-1, m.s-1,m.s-1, 1, 1, 1, Volt, m.s-1, degree, degree, degree, dbar, degree_C, m.s-1, degree
2020-02-01T00:04:03,42.805,6.029,0.006,0.016,-0.033,100.0,120.0,100.0,13.4,1505.2,326.5,-0.7,1.8,2470.36,13.3,0.017,20.6
2020-02-01T00:07:03,42.805,6.029,-0.025,0.032,-0.052,101.0,122.0,99.0,13.4,1505.3,323.8,-0.7,1.8,2470.303,13.31,0.04,322.0
2020-02-01T00:10:03,42.805,6.029,0.028,0.021,-0.025,102.0,122.0,98.0,13.3,1505.3,328.0,-0.7,1.9,2470.285,13.31,0.035,53.1
2020-02-01T00:13:03,42.805,6.029,-0.012,0.038,-0.062,101.0,126.0,98.0,13.4,1505.3,325.2,-0.7,1.8,2470.265,13.32,0.039,342.5
2020-02-01T00:16:03,42.805,6.029,0.001,0.019,-0.05,102.0,123.0,99.0,13.4,1505.3,327.7,-0.7,1.8,2470.287,13.32,0.019,3.0
2020-02-01T00:19:03,42.805,6.029,0.012,0.029,-0.011,101.0,122.0,99.0,13.4,1505.3,324.3,-0.7,1.8,2470.292,13.32,0.031,22.5
2020-02-01T00:22:03,42.805,6.029,0.023,0.035,-0.011,100.0,120.0,99.0,13.3,1505.3,324.2,-0.7,1.8,2470.311,13.32,0.041,33.3
2020-02-01T00:25:03,42.805,6.029,0.009,0.023,-0.03,102.0,122.0,98.0,13.4,1505.3,327.5,-0.7,1.9,2470.275,13.32,0.024,21.4
2020-02-01T00:28:03,42.805,6.029,0.004,0.025,-0.065,101.0,122.0,98.0,13.4,1505.3,323.9,-0.7,1.8,2470.282,13.32,0.025,9.1
2020-02-01T00:31:03,42.805,6.029,-0.011,0.049,-0.037,102.0,121.0,99.0,13.4,1505.3,327.4,-0.7,1.9,2470.259,13.32,0.05,347.3
2020-02-01T00:34:03,42.805,6.029,0.005,0.051,-0.064,102.0,118.0,100.0,13.3,1505.3,324.1,-0.7,1.8,2470.283,13.32,0.051,5.6
2020-02-01T00:37:03,42.805,6.029,0.0,0.026,-0.083,101.0,124.0,99.0,13.4,1505.3,327.0,-0.7,1.8,2470.317,13.32,0.026,0.0
2020-02-01T00:40:03,42.805,6.029,0.0,0.019,-0.065,101.0,122.0,99.0,13.4,1505.3,326.4,-0.7,1.9,2470.284,13.32,0.019,0.0
2020-02-01T00:43:03,42.805,6.029,0.032,0.032,-0.008,101.0,123.0,98.0,13.3,1505.3,327.8,-0.7,1.8,2470.259,13.32,0.045,45.0
2020-02-01T00:46:03,42.805,6.029,0.018,0.02,-0.054,101.0,122.0,100.0,13.4,1505.3,325.1,-0.7,1.8,2470.32,13.32,0.026,42.0
2020-02-01T00:49:03,42.805,6.029,0.021,0.023,0.008,102.0,120.0,99.0,13.4,1505.3,326.8,-0.7,1.8,2470.256,13.32,0.031,42.4
2020-02-01T00:52:03,42.805,6.029,0.015,0.034,-0.015,101.0,120.0,99.0,13.4,1505.3,323.5,-0.7,1.8,2470.284,13.32,0.037,23.8
2020-02-01T00:55:03,42.805,6.029,0.028,0.026,-0.047,101.0,122.0,100.0,13.4,1505.3,324.3,-0.7,1.8,2470.266,13.32,0.038,47.1
2020-02-01T00:58:03,42.805,6.029,0.0,0.022,-0.054,102.0,126.0,100.0,13.4,1505.3,323.5,-0.7,1.8,2470.268,13.32,0.022,0.0
2020-02-01T01:04:03,42.805,6.029,0.027,0.014,-0.048,105.0,122.0,101.0,13.4,1505.2,324.9,-0.8,1.9,2470.303,13.3,0.03,62.6
2020-02-01T01:07:03,42.805,6.029,0.024,0.046,-0.013,102.0,121.0,100.0,13.4,1505.3,326.8,-0.7,1.8,2470.318,13.31,0.051,27.6
2020-02-01T01:10:03,42.805,6.029,0.027,0.031,-0.07,102.0,124.0,100.0,13.4,1505.3,327.0,-0.7,1.9,2470.244,13.31,0.041,41.1
2020-02-01T01:13:03,42.805,6.029,0.008,0.017,-0.079,102.0,122.0,99.0,13.3,1505.3,326.4,-0.7,1.8,2470.302,13.32,0.018,25.2
2020-02-01T01:16:03,42.805,6.029,0.009,0.028,-0.056,101.0,120.0,100.0,13.3,1505.3,326.6,-0.7,1.8,2470.244,13.32,0.029,17.8
2020-02-01T01:19:03,42.805,6.029,0.022,0.025,-0.015,102.0,119.0,100.0,13.3,1505.3,323.9,-0.7,1.9,2470.231,13.32,0.033,41.3
2020-02-01T01:22:03,42.805,6.029,0.013,0.034,-0.027,102.0,122.0,99.0,13.3,1505.3,324.0,-0.7,1.8,2470.279,13.32,0.036,20.9
2020-02-01T01:25:03,42.805,6.029,0.014,0.023,-0.016,101.0,122.0,100.0,13.3,1505.3,328.4,-0.7,1.8,2470.266,13.32,0.026,31.3
2020-02-01T01:28:03,42.805,6.029,0.028,0.017,-0.005,101.0,121.0,99.0,13.3,1505.3,325.0,-0.7,1.8,2470.269,13.32,0.032,58.7
2020-02-01T01:31:03,42.805,6.029,0.064,0.033,0.005,103.0,121.0,100.0,13.3,1505.3,324.6,-0.7,1.8,2470.262,13.32,0.072,62.7
2020-02-01T01:34:03,42.805,6.029,0.014,0.036,-0.03,103.0,121.0,100.0,13.4,1505.3,323.4,-0.7,1.8,2470.241,13.32,0.038,21.2
2020-02-01T01:37:03,42.805,6.029,0.007,0.022,-0.062,104.0,124.0,100.0,13.4,1505.3,327.6,-0.7,1.8,2470.264,13.32,0.023,17.6
2020-02-01T01:40:03,42.805,6.029,0.0,0.033,-0.047,103.0,121.0,100.0,13.4,1505.3,323.3,-0.7,1.9,2470.229,13.32,0.033,0.0
2020-02-01T01:43:03,42.805,6.029,0.022,0.021,-0.008,102.0,122.0,100.0,13.3,1505.3,327.8,-0.7,1.9,2470.298,13.32,0.03,46.3
2020-02-01T01:46:03,42.805,6.029,0.011,0.041,-0.008,102.0,120.0,100.0,13.3,1505.3,326.5,-0.7,1.8,2470.193,13.32,0.042,15.0
2020-02-01T01:49:03,42.805,6.029,-0.004,0.04,-0.017,103.0,121.0,100.0,13.4,1505.3,323.5,-0.7,1.9,2470.301,13.32,0.04,354.3
2020-02-01T01:52:03,42.805,6.029,0.016,0.026,-0.074,103.0,123.0,99.0,13.3,1505.3,325.9,-0.7,1.8,2470.241,13.32,0.03,31.6
2020-02-01T01:55:03,42.805,6.029,0.027,0.04,-0.065,101.0,121.0,100.0,13.4,1505.3,324.5,-0.7,1.8,2470.212,13.32,0.048,34.0
2020-02-01T01:58:03,42.805,6.029,0.007,0.035,-0.038,103.0,120.0,101.0,13.4,1505.3,324.1,-0.8,1.8,2470.221,13.32,0.035,11.3
2020-02-01T02:04:03,42.805,6.029,0.021,0.042,-0.03,102.0,120.0,99.0,13.4,1505.2,325.4,-0.7,1.8,2470.268,13.3,0.046,26.6
2020-02-01T02:07:03,42.805,6.029,0.025,0.049,-0.031,102.0,124.0,100.0,13.4,1505.3,327.7,-0.8,1.8,2470.28,13.31,0.055,27.0
2020-02-01T02:10:03,42.805,6.029,-0.005,0.019,-0.068,102.0,122.0,99.0,13.4,1505.3,325.1,-0.7,1.8,2470.232,13.31,0.019,345.3
2020-02-01T02:13:03,42.805,6.029,0.011,0.024,-0.044,101.0,122.0,100.0,13.4,1505.3,324.2,-0.7,1.8,2470.237,13.32,0.026,24.6
2020-02-01T02:16:03,42.805,6.029,0.026,0.059,-0.016,101.0,122.0,100.0,13.4,1505.3,328.3,-0.7,1.8,2470.263,13.32,0.064,23.8
2020-02-01T02:19:03,42.805,6.029,0.007,0.035,-0.038,103.0,122.0,100.0,13.3,1505.3,327.2,-0.7,1.8,2470.251,13.32,0.035,11.3
2020-02-01T02:22:03,42.805,6.029,0.034,0.026,-0.048,101.0,121.0,100.0,13.4,1505.3,325.6,-0.7,1.8,2470.277,13.32,0.042,52.6
2020-02-01T02:25:03,42.805,6.029,0.041,0.029,-0.028,102.0,119.0,99.0,13.3,1505.3,325.3,-0.7,1.8,2470.216,13.32,0.05,54.7
2020-02-01T02:28:03,42.805,6.029,0.018,0.035,-0.044,103.0,123.0,99.0,13.4,1505.3,322.8,-0.7,1.8,2470.252,13.32,0.039,27.2
2020-02-01T02:31:03,42.805,6.029,0.03,0.031,-0.004,102.0,120.0,101.0,13.4,1505.3,328.0,-0.7,1.8,2470.253,13.32,0.043,44.1
2020-02-01T02:34:03,42.805,6.029,0.019,0.046,-0.054,101.0,125.0,100.0,13.4,1505.3,326.4,-0.7,1.9,2470.22,13.32,0.049,22.4
2020-02-01T02:37:03,42.805,6.029,0.042,0.011,-0.023,103.0,121.0,100.0,13.4,1505.3,324.8,-0.7,1.8,2470.233,13.32,0.043,75.3
2020-02-01T02:40:03,42.805,6.029,0.023,0.025,-0.038,101.0,120.0,100.0,13.4,1505.3,325.9,-0.7,1.8,2470.239,13.32,0.033,42.6
2020-02-01T02:43:03,42.805,6.029,0.014,0.025,-0.062,100.0,122.0,101.0,13.4,1505.3,323.4,-0.7,1.8,2470.248,13.32,0.028,29.3
2020-02-01T02:46:03,42.805,6.029,0.045,0.042,-0.016,102.0,121.0,99.0,13.4,1505.3,325.0,-0.7,1.8,2470.264,13.32,0.061,47.0
2020-02-01T02:49:03,42.805,6.029,0.028,0.033,-0.007,102.0,119.0,100.0,13.3,1505.3,328.6,-0.7,1.8,2470.221,13.32,0.043,40.3
2020-02-01T02:52:03,42.805,6.029,0.025,0.036,-0.033,101.0,120.0,100.0,13.4,1505.3,326.5,-0.7,1.8,2470.222,13.32,0.043,34.8
2020-02-01T02:55:03,42.805,6.029,0.035,0.044,-0.033,100.0,120.0,99.0,13.4,1505.3,324.8,-0.7,1.9,2470.258,13.32,0.056,38.5
2020-02-01T02:58:03,42.805,6.029,0.037,0.041,-0.001,102.0,120.0,100.0,13.4,1505.3,326.7,-0.7,1.8,2470.212,13.32,0.055,42.1
2020-02-01T03:04:03,42.805,6.029,0.044,0.032,-0.001,101.0,122.0,99.0,13.4,1505.2,324.4,-0.7,1.8,2470.235,13.3,0.054,54.0
2020-02-01T03:07:03,42.805,6.029,0.017,0.013,-0.047,100.0,120.0,99.0,13.4,1505.3,324.7,-0.7,1.8,2470.214,13.31,0.021,52.6
2020-02-01T03:10:03,42.805,6.029,-0.003,0.042,-0.051,100.0,119.0,100.0,13.4,1505.3,326.7,-0.8,1.8,2470.207,13.31,0.042,355.9
2020-02-01T03:13:03,42.805,6.029,0.022,0.038,-0.024,100.0,122.0,99.0,13.3,1505.3,323.0,-0.7,1.8,2470.283,13.32,0.043,30.1
2020-02-01T03:16:03,42.805,6.029,0.038,0.041,-0.033,101.0,122.0,99.0,13.4,1505.3,328.3,-0.7,1.9,2470.192,13.32,0.055,42.8
2020-02-01T03:19:03,42.805,6.029,0.006,0.036,-0.024,101.0,123.0,99.0,13.4,1505.3,325.0,-0.7,1.8,2470.239,13.32,0.036,9.5
2020-02-01T03:22:03,42.805,6.029,0.027,0.028,-0.04,101.0,121.0,99.0,13.4,1505.3,326.5,-0.7,1.8,2470.259,13.32,0.038,44.0
2020-02-01T03:25:03,42.805,6.029,0.061,0.026,-0.023,100.0,121.0,99.0,13.4,1505.3,324.5,-0.7,1.8,2470.242,13.32,0.066,66.9
2020-02-01T03:28:03,42.805,6.029,0.0,0.031,-0.079,101.0,123.0,99.0,13.4,1505.3,325.1,-0.7,1.8,2470.213,13.32,0.03,0.0
2020-02-01T03:31:03,42.805,6.029,0.039,0.023,-0.046,101.0,123.0,98.0,13.4,1505.3,326.3,-0.7,1.8,2470.207,13.32,0.045,59.5
2020-02-01T03:34:03,42.805,6.029,0.009,0.02,-0.071,100.0,121.0,99.0,13.4,1505.3,326.7,-0.7,1.8,2470.25,13.32,0.021,24.2
2020-02-01T03:37:03,42.805,6.029,0.015,0.002,-0.055,100.0,121.0,98.0,13.3,1505.3,325.0,-0.7,1.8,2470.227,13.32,0.015,82.4
2020-02-01T03:40:03,42.805,6.029,0.018,0.033,-0.047,101.0,119.0,100.0,13.4,1505.3,323.2,-0.7,1.9,2470.216,13.32,0.037,28.6
2020-02-01T03:43:03,42.805,6.029,0.027,0.044,-0.017,101.0,121.0,99.0,13.4,1505.3,325.9,-0.7,1.9,2470.177,13.32,0.051,31.5
2020-02-01T03:46:03,42.805,6.029,0.032,0.039,-0.015,101.0,121.0,99.0,13.4,1505.3,327.9,-0.7,1.8,2470.208,13.32,0.05,39.4
2020-02-01T03:49:03,42.805,6.029,0.021,0.04,-0.056,100.0,124.0,98.0,13.4,1505.3,326.8,-0.7,1.8,2470.264,13.32,0.045,27.7
2020-02-01T03:52:03,42.805,6.029,0.044,0.03,-0.007,101.0,118.0,100.0,13.4,1505.3,327.6,-0.7,1.8,2470.171,13.32,0.053,55.7
2020-02-01T03:55:03,42.805,6.029,0.048,0.042,-0.031,100.0,124.0,99.0,13.3,1505.3,324.3,-0.7,1.8,2470.197,13.32,0.063,48.8
2020-02-01T03:58:03,42.805,6.029,0.019,0.029,-0.014,101.0,120.0,101.0,13.4,1505.3,326.0,-0.7,1.8,2470.167,13.32,0.034,33.2
2020-02-01T04:04:03,42.805,6.029,0.019,0.046,-0.043,101.0,123.0,98.0,13.3,1505.2,323.5,-0.8,1.8,2470.24,13.3,0.049,22.4
2020-02-01T04:07:03,42.805,6.029,0.049,0.027,-0.009,101.0,118.0,99.0,13.4,1505.3,323.2,-0.8,1.8,2470.234,13.31,0.055,61.1
2020-02-01T04:10:03,42.805,6.029,0.014,0.023,-0.038,101.0,121.0,99.0,13.4,1505.3,328.6,-0.7,1.9,2470.282,13.31,0.026,31.3
2020-02-01T04:13:03,42.805,6.029,0.005,0.048,-0.016,100.0,121.0,100.0,13.3,1505.3,324.4,-0.7,1.9,2470.274,13.32,0.048,5.9
2020-02-01T04:16:03,42.805,6.029,0.025,0.026,-0.053,101.0,121.0,98.0,13.4,1505.3,327.2,-0.7,1.8,2470.238,13.32,0.036,43.9
2020-02-01T04:19:03,42.805,6.029,0.028,0.028,-0.041,100.0,122.0,99.0,13.3,1505.3,326.3,-0.7,1.8,2470.245,13.32,0.039,45.0
2020-02-01T04:22:03,42.805,6.029,0.026,0.036,-0.013,100.0,123.0,99.0,13.4,1505.3,323.1,-0.7,1.8,2470.186,13.32,0.044,35.8
2020-02-01T04:25:03,42.805,6.029,0.037,0.043,-0.037,102.0,121.0,99.0,13.4,1505.3,324.2,-0.7,1.8,2470.2,13.32,0.056,40.7
2020-02-01T04:28:03,42.805,6.029,0.016,0.032,-0.036,101.0,126.0,98.0,13.3,1505.3,327.5,-0.7,1.8,2470.216,13.32,0.035,26.6
2020-02-01T04:31:03,42.805,6.029,0.024,0.024,-0.03,101.0,125.0,97.0,13.3,1505.3,327.8,-0.7,1.8,2470.232,13.32,0.033,45.0
2020-02-01T04:34:03,42.805,6.029,0.016,0.033,-0.026,102.0,122.0,99.0,13.4,1505.3,326.3,-0.7,1.8,2470.212,13.32,0.036,25.9
2020-02-01T04:37:03,42.805,6.029,0.03,0.04,-0.018,101.0,123.0,99.0,13.4,1505.3,326.9,-0.7,1.8,2470.23,13.32,0.05,36.9
2020-02-01T04:40:03,42.805,6.029,0.01,0.026,-0.051,101.0,124.0,99.0,13.4,1505.3,325.1,-0.7,1.8,2470.166,13.32,0.027,21.0
2020-02-01T04:43:03,42.805,6.029,0.035,0.02,-0.045,101.0,121.0,100.0,13.4,1505.3,326.0,-0.7,1.8,2470.23,13.32,0.04,60.3
2020-02-01T04:46:03,42.805,6.029,0.0,0.035,-0.058,102.0,123.0,98.0,13.4,1505.3,326.0,-0.7,1.8,2470.202,13.32,0.035,0.0
2020-02-01T04:49:03,42.805,6.029,-0.004,0.026,-0.034,101.0,122.0,100.0,13.4,1505.3,323.6,-0.7,1.9,2470.218,13.32,0.026,351.3
2020-02-01T04:52:03,42.805,6.029,0.011,0.048,-0.032,101.0,122.0,98.0,13.4,1505.3,323.9,-0.7,1.8,2470.181,13.32,0.049,12.9
2020-02-01T04:58:03,42.805,6.029,0.023,0.054,-0.018,101.0,126.0,99.0,13.4,1505.2,326.3,-0.8,1.8,2470.238,13.3,0.058,23.1
2020-02-01T05:04:03,42.805,6.029,0.027,0.051,0.02,101.0,120.0,100.0,13.4,1505.2,323.7,-0.7,1.8,2470.222,13.29,0.057,27.9
2020-02-01T05:07:03,42.805,6.029,0.017,0.018,-0.031,101.0,123.0,100.0,13.4,1505.2,327.8,-0.7,1.8,2470.186,13.3,0.024,43.4
2020-02-01T05:10:03,42.805,6.029,0.055,0.016,-0.002,101.0,121.0,100.0,13.3,1505.3,327.1,-0.7,1.9,2470.214,13.31,0.057,73.8
2020-02-01T05:13:03,42.805,6.029,0.016,0.027,-0.027,101.0,123.0,99.0,13.3,1505.3,326.5,-0.7,1.8,2470.254,13.31,0.031,30.7
2020-02-01T05:16:03,42.805,6.029,0.049,0.037,-0.025,102.0,126.0,99.0,13.4,1505.3,326.4,-0.7,1.8,2470.188,13.32,0.061,52.9
2020-02-01T05:19:03,42.805,6.029,0.019,0.032,-0.032,101.0,125.0,98.0,13.3,1505.3,325.0,-0.7,1.8,2470.243,13.32,0.037,30.7
2020-02-01T05:22:03,42.805,6.029,0.038,0.02,-0.003,101.0,123.0,99.0,13.4,1505.3,323.8,-0.7,1.9,2470.261,13.32,0.042,62.2
2020-02-01T05:25:03,42.805,6.029,0.014,0.049,-0.048,102.0,130.0,98.0,13.4,1505.3,325.2,-0.7,1.8,2470.195,13.32,0.05,15.9
2020-02-01T05:28:03,42.805,6.029,-0.001,0.032,-0.037,100.0,123.0,100.0,13.4,1505.3,324.0,-0.7,1.8,2470.228,13.32,0.032,358.2
2020-02-01T05:31:03,42.805,6.029,0.035,0.013,-0.036,101.0,119.0,100.0,13.4,1505.3,328.3,-0.7,1.8,2470.194,13.32,0.037,69.6
2020-02-01T05:34:03,42.805,6.029,0.012,0.033,-0.014,100.0,126.0,100.0,13.4,1505.3,325.0,-0.7,1.8,2470.188,13.32,0.035,20.0
2020-02-01T05:37:03,42.805,6.029,0.003,0.017,-0.081,100.0,125.0,99.0,13.4,1505.3,323.2,-0.7,1.8,2470.198,13.32,0.017,10.0
2020-02-01T05:40:03,42.805,6.029,0.001,0.035,-0.051,103.0,125.0,99.0,13.4,1505.3,327.4,-0.7,1.8,2470.213,13.32,0.035,1.6
2020-02-01T05:43:03,42.805,6.029,0.016,0.029,-0.034,101.0,127.0,99.0,13.3,1505.3,327.6,-0.7,1.8,2470.221,13.32,0.033,28.9
2020-02-01T05:46:03,42.805,6.029,0.035,0.03,-0.016,100.0,124.0,98.0,13.4,1505.3,327.2,-0.7,1.9,2470.208,13.32,0.046,49.4
2020-02-01T05:49:03,42.805,6.029,0.019,0.011,-0.034,101.0,125.0,99.0,13.4,1505.3,327.1,-0.7,1.8,2470.178,13.32,0.021,59.9
2020-02-01T05:52:03,42.805,6.029,0.025,0.036,-0.02,102.0,127.0,99.0,13.4,1505.3,327.9,-0.7,1.8,2470.233,13.32,0.043,34.8
2020-02-01T05:55:03,42.805,6.029,0.003,0.033,-0.01,101.0,122.0,99.0,13.4,1505.3,328.4,-0.7,1.8,2470.198,13.32,0.033,5.2
2020-02-01T05:58:03,42.805,6.029,0.009,0.022,-0.05,101.0,122.0,99.0,13.4,1505.3,328.4,-0.7,1.8,2470.197,13.32,0.023,22.2
2020-02-01T06:04:03,42.805,6.029,0.041,0.027,-0.018,102.0,124.0,100.0,13.4,1505.2,326.8,-0.7,1.8,2470.225,13.3,0.049,56.6
2020-02-01T06:07:03,42.805,6.029,0.023,0.021,-0.047,100.0,124.0,100.0,13.4,1505.3,328.3,-0.7,1.9,2470.203,13.31,0.031,47.6
2020-02-01T06:10:03,42.805,6.029,0.038,0.014,-0.018,101.0,120.0,100.0,13.3,1505.3,326.0,-0.7,1.8,2470.233,13.31,0.04,69.8
2020-02-01T06:13:03,42.805,6.029,0.027,0.023,-0.029,101.0,123.0,99.0,13.4,1505.3,327.8,-0.7,1.8,2470.184,13.32,0.035,49.6
2020-02-01T06:16:03,42.805,6.029,0.029,0.011,-0.048,101.0,125.0,99.0,13.3,1505.3,328.6,-0.7,1.8,2470.218,13.32,0.031,69.2
2020-02-01T06:19:03,42.805,6.029,0.006,0.028,-0.02,101.0,125.0,99.0,13.4,1505.3,328.6,-0.7,1.8,2470.216,13.32,0.028,12.1
2020-02-01T06:22:03,42.805,6.029,0.022,0.045,-0.025,101.0,122.0,99.0,13.3,1505.3,328.0,-0.8,1.8,2470.241,13.32,0.05,26.1
2020-02-01T06:25:03,42.805,6.029,0.017,0.005,-0.064,102.0,125.0,99.0,13.3,1505.3,327.7,-0.8,1.8,2470.212,13.32,0.017,73.6
2020-02-01T06:28:03,42.805,6.029,0.031,0.036,-0.005,102.0,122.0,99.0,13.3,1505.3,328.5,-0.7,1.8,2470.191,13.32,0.047,40.7
2020-02-01T06:31:03,42.805,6.029,0.007,0.021,-0.015,101.0,121.0,99.0,13.4,1505.3,327.8,-0.7,1.8,2470.204,13.32,0.022,18.4
2020-02-01T06:34:03,42.805,6.029,0.02,0.034,-0.006,102.0,119.0,100.0,13.4,1505.3,326.1,-0.7,1.8,2470.192,13.32,0.039,30.5
2020-02-01T06:37:03,42.805,6.029,0.016,0.021,-0.053,102.0,122.0,100.0,13.3,1505.3,324.9,-0.7,1.8,2470.171,13.32,0.026,37.3
2020-02-01T06:40:03,42.805,6.029,0.036,0.007,-0.033,101.0,123.0,100.0,13.4,1505.3,325.2,-0.7,1.8,2470.177,13.32,0.036,79.0
2020-02-01T06:43:03,42.805,6.029,0.022,0.022,-0.017,101.0,124.0,99.0,13.3,1505.3,325.3,-0.7,1.8,2470.181,13.32,0.031,45.0
2020-02-01T06:46:03,42.805,6.029,-0.006,0.031,-0.072,101.0,125.0,99.0,13.3,1505.3,325.4,-0.7,1.9,2470.188,13.32,0.031,349.0
2020-02-01T06:49:03,42.805,6.029,0.009,0.013,-0.04,102.0,121.0,99.0,13.3,1505.3,325.9,-0.7,1.8,2470.224,13.32,0.015,34.7
2020-02-01T06:52:03,42.805,6.029,0.033,0.017,-0.008,101.0,122.0,99.0,13.4,1505.3,325.3,-0.7,1.8,2470.191,13.32,0.037,62.7
2020-02-01T06:55:03,42.805,6.029,0.0,0.014,-0.065,103.0,124.0,99.0,13.3,1505.3,323.1,-0.7,1.9,2470.218,13.32,0.014,0.0
2020-02-01T06:58:03,42.805,6.029,0.011,0.049,-0.033,102.0,125.0,100.0,13.3,1505.3,326.7,-0.7,1.8,2470.196,13.32,0.05,12.7
2020-02-01T07:04:03,42.805,6.029,0.029,0.042,-0.044,103.0,123.0,99.0,13.4,1505.2,326.5,-0.7,1.8,2470.183,13.3,0.051,34.6
2020-02-01T07:07:03,42.805,6.029,-0.005,0.021,-0.046,103.0,124.0,100.0,13.3,1505.3,325.9,-0.7,1.8,2470.2,13.31,0.021,346.6
2020-02-01T07:10:03,42.805,6.029,0.022,0.033,-0.008,100.0,124.0,101.0,13.4,1505.3,326.0,-0.7,1.8,2470.253,13.31,0.039,33.7
2020-02-01T07:13:03,42.805,6.029,-0.018,0.005,-0.066,103.0,123.0,98.0,13.3,1505.3,324.8,-0.7,1.8,2470.209,13.32,0.018,285.5
2020-02-01T07:16:03,42.805,6.029,0.009,0.029,-0.031,104.0,123.0,99.0,13.4,1505.3,325.1,-0.7,1.8,2470.199,13.32,0.03,17.2
2020-02-01T07:19:03,42.805,6.029,0.004,0.028,-0.051,102.0,122.0,100.0,13.4,1505.3,324.9,-0.7,1.8,2470.24,13.32,0.028,8.1
2020-02-01T07:22:03,42.805,6.029,-0.003,0.02,-0.063,103.0,131.0,99.0,13.4,1505.3,327.0,-0.7,1.8,2470.215,13.32,0.02,351.5
2020-02-01T07:25:03,42.805,6.029,0.026,0.023,-0.023,103.0,127.0,98.0,13.4,1505.3,323.3,-0.7,1.8,2470.226,13.32,0.034,48.5
2020-02-01T07:28:03,42.805,6.029,-0.006,0.011,-0.032,102.0,125.0,100.0,13.3,1505.3,324.7,-0.7,1.8,2470.254,13.32,0.012,331.4
2020-02-01T07:31:03,42.805,6.029,0.013,0.025,-0.039,104.0,128.0,98.0,13.4,1505.3,323.5,-0.7,1.8,2470.237,13.32,0.028,27.5
2020-02-01T07:34:03,42.805,6.029,0.002,0.03,-0.029,102.0,126.0,99.0,13.4,1505.3,324.4,-0.7,1.8,2470.221,13.32,0.03,3.8
2020-02-01T07:37:03,42.805,6.029,0.0,0.023,-0.033,101.0,128.0,99.0,13.3,1505.3,326.5,-0.7,1.8,2470.21,13.32,0.023,0.0
2020-02-01T07:40:03,42.805,6.029,-0.019,0.025,-0.06,101.0,124.0,100.0,13.4,1505.3,327.4,-0.7,1.8,2470.19,13.32,0.031,322.8
2020-02-01T07:43:03,42.805,6.029,0.041,0.037,-0.007,102.0,123.0,100.0,13.4,1505.3,326.4,-0.7,1.8,2470.244,13.32,0.055,47.9
2020-02-01T07:46:03,42.805,6.029,0.027,0.025,-0.029,101.0,126.0,101.0,13.4,1505.3,324.4,-0.7,1.9,2470.221,13.32,0.036,47.2
2020-02-01T07:49:03,42.805,6.029,0.027,0.02,-0.044,102.0,124.0,100.0,13.3,1505.3,326.1,-0.8,1.8,2470.227,13.32,0.033,53.5
2020-02-01T07:52:03,42.805,6.029,0.001,0.018,-0.034,102.0,128.0,100.0,13.4,1505.3,327.4,-0.7,1.8,2470.241,13.32,0.018,3.2
2020-02-01T07:55:03,42.805,6.029,0.031,0.021,-0.054,103.0,125.0,100.0,13.4,1505.3,325.1,-0.7,1.8,2470.248,13.32,0.037,55.9
2020-02-01T07:58:03,42.805,6.029,0.059,0.026,-0.009,103.0,124.0,100.0,13.4,1505.3,326.7,-0.7,1.9,2470.216,13.32,0.064,66.2
2020-02-01T08:04:03,42.805,6.029,0.031,0.031,0.009,101.0,121.0,101.0,13.3,1505.2,327.0,-0.8,1.9,2470.249,13.3,0.043,45.0
2020-02-01T08:07:03,42.805,6.029,0.007,0.02,-0.071,102.0,123.0,99.0,13.4,1505.3,323.5,-0.7,1.8,2470.253,13.31,0.021,19.3
2020-02-01T08:10:03,42.805,6.029,0.024,0.041,-0.012,102.0,122.0,100.0,13.3,1505.3,327.5,-0.7,1.8,2470.231,13.31,0.047,30.3
2020-02-01T08:13:03,42.805,6.029,0.014,0.022,-0.016,102.0,121.0,101.0,13.4,1505.3,325.1,-0.7,1.8,2470.305,13.32,0.026,32.5
2020-02-01T08:16:03,42.805,6.029,0.015,0.044,-0.043,104.0,121.0,100.0,13.4,1505.3,322.9,-0.7,1.8,2470.234,13.32,0.046,18.8
2020-02-01T08:19:03,42.805,6.029,0.017,0.032,-0.044,102.0,123.0,100.0,13.4,1505.3,327.9,-0.7,1.8,2470.259,13.32,0.036,28.0
2020-02-01T08:22:03,42.805,6.029,-0.01,0.017,-0.05,101.0,123.0,99.0,13.4,1505.3,326.2,-0.7,1.9,2470.269,13.32,0.019,329.5
2020-02-01T08:25:03,42.805,6.029,-0.012,0.05,-0.013,101.0,124.0,99.0,13.4,1505.3,327.9,-0.7,1.9,2470.255,13.32,0.051,346.5
2020-02-01T08:28:03,42.805,6.029,0.042,0.015,-0.035,102.0,120.0,101.0,13.4,1505.3,326.9,-0.7,1.8,2470.258,13.32,0.044,70.4
2020-02-01T08:31:03,42.805,6.029,0.02,0.015,-0.039,100.0,124.0,100.0,13.3,1505.3,328.1,-0.7,1.8,2470.221,13.32,0.025,53.1
2020-02-01T08:34:03,42.805,6.029,0.007,0.04,-0.06,101.0,129.0,100.0,13.4,1505.3,326.7,-0.7,1.8,2470.255,13.32,0.04,9.9
2020-02-01T08:37:03,42.805,6.029,-0.019,0.026,-0.084,103.0,128.0,99.0,13.4,1505.3,325.7,-0.7,1.8,2470.274,13.32,0.032,323.8
2020-02-01T08:40:03,42.805,6.029,0.019,0.047,-0.025,103.0,127.0,98.0,13.3,1505.3,325.7,-0.7,1.8,2470.272,13.32,0.05,22.0
2020-02-01T08:43:03,42.805,6.029,-0.018,0.057,-0.044,102.0,130.0,98.0,13.4,1505.3,327.4,-0.7,1.8,2470.27,13.32,0.059,342.5
2020-02-01T08:46:03,42.805,6.029,0.004,0.022,-0.061,102.0,130.0,100.0,13.3,1505.3,327.7,-0.7,1.8,2470.248,13.32,0.022,10.3
2020-02-01T08:49:03,42.805,6.029,0.001,0.034,-0.062,103.0,127.0,98.0,13.4,1505.3,326.5,-0.7,1.8,2470.27,13.32,0.034,1.7
2020-02-01T08:52:03,42.805,6.029,-0.004,0.037,-0.085,101.0,124.0,100.0,13.4,1505.3,327.1,-0.7,1.8,2470.278,13.32,0.037,353.8
2020-02-01T08:55:03,42.805,6.029,0.005,0.034,-0.043,103.0,126.0,100.0,13.3,1505.3,327.4,-0.7,1.8,2470.264,13.32,0.034,8.4
2020-02-01T08:58:03,42.805,6.029,0.007,0.029,-0.056,101.0,129.0,99.0,13.4,1505.3,326.6,-0.7,1.8,2470.266,13.32,0.029,13.6
2020-02-01T09:04:03,42.805,6.029,0.046,0.041,-0.008,101.0,122.0,100.0,13.4,1505.2,328.5,-0.7,1.9,2470.336,13.3,0.061,48.3
2020-02-01T09:07:03,42.805,6.029,0.019,0.015,-0.019,102.0,125.0,100.0,13.4,1505.3,326.0,-0.7,1.8,2470.33,13.31,0.024,51.7
2020-02-01T09:10:03,42.805,6.029,-0.003,0.02,-0.01,102.0,130.0,99.0,13.4,1505.3,325.0,-0.7,1.8,2470.303,13.31,0.02,351.5
2020-02-01T09:13:03,42.805,6.029,0.013,0.031,-0.008,101.0,129.0,99.0,13.3,1505.3,324.8,-0.7,1.9,2470.295,13.31,0.033,22.7
2020-02-01T09:16:03,42.805,6.029,0.011,0.027,-0.04,101.0,128.0,99.0,13.4,1505.3,326.9,-0.7,1.8,2470.29,13.32,0.029,22.2
2020-02-01T09:19:03,42.805,6.029,0.01,0.038,-0.012,102.0,128.0,99.0,13.4,1505.3,326.6,-0.7,1.8,2470.278,13.32,0.039,14.7
2020-02-01T09:22:03,42.805,6.029,0.011,0.032,-0.064,100.0,132.0,100.0,13.4,1505.3,326.3,-0.7,1.8,2470.348,13.32,0.033,19.0
2020-02-01T09:25:03,42.805,6.029,0.011,0.034,-0.035,102.0,128.0,99.0,13.4,1505.3,325.9,-0.7,1.9,2470.316,13.32,0.035,17.9
2020-02-01T09:28:03,42.805,6.029,-0.011,0.028,-0.055,100.0,126.0,98.0,13.4,1505.3,326.5,-0.7,1.8,2470.272,13.32,0.03,338.6
2020-02-01T09:31:03,42.805,6.029,0.013,0.043,-0.036,103.0,128.0,98.0,13.4,1505.3,327.0,-0.7,1.8,2470.345,13.32,0.044,16.8
2020-02-01T09:34:03,42.805,6.029,0.003,0.032,-0.059,102.0,128.0,100.0,13.4,1505.3,326.1,-0.7,1.8,2470.285,13.32,0.032,5.4
2020-02-01T09:37:03,42.805,6.029,0.024,0.024,-0.078,102.0,127.0,100.0,13.3,1505.3,326.5,-0.7,1.8,2470.304,13.32,0.033,45.0
2020-02-01T09:40:03,42.805,6.029,0.011,0.022,-0.044,101.0,123.0,100.0,13.4,1505.3,324.7,-0.7,1.8,2470.288,13.32,0.024,26.6
2020-02-01T09:43:03,42.805,6.029,0.009,0.037,-0.062,101.0,125.0,99.0,13.4,1505.3,326.9,-0.7,1.8,2470.304,13.32,0.038,13.7
2020-02-01T09:46:03,42.805,6.029,0.03,0.027,-0.05,101.0,125.0,99.0,13.3,1505.3,326.3,-0.7,1.8,2470.275,13.32,0.04,48.0
2020-02-01T09:49:03,42.805,6.029,0.032,0.021,-0.033,100.0,123.0,99.0,13.4,1505.3,327.1,-0.7,1.8,2470.272,13.32,0.038,56.7
2020-02-01T09:52:03,42.805,6.029,0.018,0.036,-0.034,101.0,123.0,100.0,13.4,1505.3,326.5,-0.7,1.9,2470.279,13.32,0.04,26.6
2020-02-01T09:55:03,42.805,6.029,0.01,0.024,-0.052,102.0,125.0,98.0,13.3,1505.3,326.5,-0.7,1.8,2470.301,13.32,0.026,22.6
2020-02-01T09:58:03,42.805,6.029,0.01,0.029,-0.034,101.0,128.0,100.0,13.4,1505.3,327.1,-0.7,1.8,2470.299,13.32,0.03,19.0
2020-02-01T10:04:03,42.805,6.029,0.018,0.023,-0.032,101.0,128.0,99.0,13.4,1505.2,327.1,-0.7,1.8,2470.354,13.3,0.029,38.0
2020-02-01T10:07:03,42.805,6.029,0.021,0.028,-0.039,100.0,125.0,99.0,13.4,1505.3,327.0,-0.7,1.8,2470.343,13.31,0.035,36.9
2020-02-01T10:10:03,42.805,6.029,0.01,0.021,-0.025,101.0,125.0,100.0,13.4,1505.3,323.5,-0.7,1.8,2470.319,13.31,0.023,25.5